Weather in Lendery

Russia / Republic of Karelia     63°25′41″N   31°10′18″E
temp.,
°C
wind,
m/s
gust,
m/s
humid.,
%
clouds,
%
prec.,
mm/h
press.,
hPa
HPBL,
m
7 march, sun
sun700:00−4sse61295100 2.6 981686
03:00−7w61294100 4.9 981726
06:00−9sw5994100 1.0 982521
09:00−12sse129696 1.4 98656
12:00−7ne488890 0.0 990617
15:00−8ne6108795 0.1 995904
18:00−10ne6138899 0.1 999863
21:00−13nne6148998 0.2 1003589
8 march, mon
mon800:00−17nne6139199 0.0 1007411
03:00−19nne4129263 0.0 1010335
06:00−22nne4109531 0.0 1012296
09:00−23nne4109333 0.0 1014279
12:00−18nne368911 0.0 1016307
15:00−15nne358718 0.0 1017415
18:00−18nne249582 0.0 1017106
21:00−21ne239791 0.0 101952
9 march, tue
tue900:00−25ne129744 0.0 102020
03:00−26ne119422 0.0 102119
06:00−27ene11900 0.0 102219
09:00−25ene00871 0.0 102321
12:00−17wnw11744 0.0 1023227
15:00−14wnw12702 0.0 1023338
18:00−17wnw22860 0.0 102320
21:00−21nw11900 0.0 102520
10 march, wed
wed1000:00−22wnw11860 0.0 102520
03:00−23w11870 0.0 102620
06:00−23w119140 0.0 102620
09:00−20w249370 0.0 1026102
12:00−15w2489100 0.0 1026248
15:00−12w358877 0.0 1025339
18:00−15wsw239240 0.0 102468
21:00−19wsw239020 0.0 102420
11 march, thu
thu1100:00−20sw22920 0.0 102420
03:00−21sw22900 0.0 102320
06:00−21ssw23870 0.0 102222
09:00−19s28880 0.0 1020196
12:00−11s511720 0.0 1017579
15:00−9s611650 0.0 1013914
18:00−11sse412780 0.0 1009639
21:00−13sse515881 0.0 1005592